Weather History for Carmi, IL

Change the Weather History Date:

Saturday, August 9, 2014

  Actual Average (KEVV) Record (KEVV)
Temperature  
Mean Temperature 76 °F 77 °F  
Max Temperature 82 °F 88 °F 105 °F (1930)
Min Temperature 71 °F 66 °F 51 °F (1976)
Degree Days  
Heating Degree Days 0 0  
Month to date heating degree days 0  
Since 1 June heating degree days 6  
Since 1 July heating degree days 0  
Cooling Degree Days 12 12  
Month to date cooling degree days 111  
Year to date cooling degree days 947  
Since 1 June cooling degree days 812  
Growing Degree Days 26 (Base 50)    
Moisture  
Dew Point 73 °F    
Average Humidity 94    
Maximum Humidity 100    
Minimum Humidity 79    
Precipitation  
Precipitation 0.01 in 0.10 in 2.79 in (2006)
Month to date precipitation 0.85  
Year to date precipitation 28.79  
Snow  
Snow 0.00 in 0.00 in 0.00 in (2002)
Month to date snowfall 0.0  
Since 1 June snowfall 0.0  
Since 1 July snowfall 0.0  
Snow Depth -    
Sea Level Pressure  
Sea Level Pressure 29.96 in    
Wind  
Wind Speed 2 mph (NW)    
Max Wind Speed 8 mph    
Max Gust Speed -    
Visibility 4 miles    
Events Fog , Rain    
T = Trace of Precipitation, MM = Missing Value Source: NWS Daily Summary

Daily Weather History Graph

Daily Weather History Graph

Search for Another Location

Airport:

Trip Planner

Search our weather history database for the weather conditions in past years. The results will help you decide how hot, cold, wet, or windy it might be!

Date:

Astronomy

Aug. 09, 2014 Rise Set
Actual Time 6:02 AM CDT 7:53 PM CDT
Civil Twilight 5:33 AM CDT 8:21 PM CDT
Nautical Twilight 4:58 AM CDT 8:56 PM CDT
Astronomical Twilight 4:21 AM CDT 9:33 PM CDT
Moon 6:54 PM CDT (8/9) 4:42 AM CDT (8/9)
Length of Visible Light 14h 47m
Length of Day
13h 50m
Waxing Gibbous, 98% of the Moon is Illuminated
Aug 9
Waxing Gibbous
Aug 10
Full
Aug 17
Last Quarter
Aug 25
New
Sep 2
First Quarter

Hourly Weather History & Observations

Time (CDT) Temp. Heat Index Dew Point Humidity Pressure Visibility Wind Dir Wind Speed Gust Speed Precip Events Conditions
12:17 AM 71.6 °F - 71.6 °F 100% 29.94 in 5.0 mi NNE 3.5 mph - N/A   Overcast
12:35 AM 73.4 °F - 71.6 °F 94% 29.94 in 5.0 mi Calm Calm - N/A   Overcast
12:57 AM 73.4 °F - 71.6 °F 94% 29.94 in 4.0 mi Calm Calm - N/A   Overcast
1:15 AM 73.4 °F - 71.6 °F 94% 29.94 in 4.0 mi Calm Calm - N/A   Overcast
1:35 AM 73.4 °F - 71.6 °F 94% 29.93 in 4.0 mi NNE 3.5 mph - N/A   Mostly Cloudy
1:55 AM 71.6 °F - 71.6 °F 100% 29.93 in 3.0 mi Calm Calm - N/A   Mostly Cloudy
2:15 AM 71.6 °F - 71.6 °F 100% 29.93 in 2.5 mi Calm Calm - N/A   Mostly Cloudy
2:35 AM 71.6 °F - 71.6 °F 100% 29.93 in 2.5 mi Calm Calm - N/A   Overcast
2:55 AM 71.6 °F - 71.6 °F 100% 29.92 in 3.0 mi NE 3.5 mph - N/A   Overcast
3:15 AM 71.6 °F - 71.6 °F 100% 29.93 in 3.0 mi Calm Calm - N/A   Overcast
3:35 AM 71.6 °F - 71.6 °F 100% 29.93 in 3.0 mi Calm Calm - N/A   Overcast
3:57 AM 71.6 °F - 71.6 °F 100% 29.93 in 2.5 mi Calm Calm - N/A   Overcast
4:37 AM 73.4 °F - 71.6 °F 94% 29.93 in 1.0 mi Calm Calm - N/A   Overcast
4:55 AM 73.4 °F - 71.6 °F 94% 29.92 in 0.8 mi NNE 4.6 mph - N/A   Overcast
5:17 AM 73.4 °F - 71.6 °F 94% 29.92 in 0.8 mi NNE 4.6 mph - N/A   Overcast
5:35 AM 71.6 °F - 71.6 °F 100% 29.93 in 0.5 mi Calm Calm - N/A Fog Fog
6:15 AM 71.6 °F - 71.6 °F 100% 29.94 in 0.5 mi Calm Calm - N/A Fog Fog
6:35 AM 71.6 °F - 71.6 °F 100% 29.95 in 0.5 mi Calm Calm - N/A Fog Fog
6:55 AM 73.4 °F - 71.6 °F 94% 29.95 in 0.5 mi Calm Calm - N/A Fog Fog
7:35 AM 73.4 °F - 73.4 °F 100% 29.95 in 0.2 mi ENE 3.5 mph - N/A Fog Fog
7:57 AM 73.4 °F - 73.4 °F 100% 29.96 in 0.5 mi Calm Calm - N/A Fog Fog
8:15 AM 73.4 °F - 73.4 °F 100% 29.96 in 0.5 mi Calm Calm - N/A   Light Drizzle
8:35 AM 73.4 °F - 73.4 °F 100% 29.97 in 1.0 mi WNW 3.5 mph - N/A   Overcast
8:55 AM 73.4 °F - 73.4 °F 100% 29.97 in 3.0 mi Calm Calm - N/A Rain Rain
9:16 AM 73.4 °F - 73.4 °F 100% 29.97 in 3.0 mi Calm Calm - N/A Rain Rain
9:35 AM 73.4 °F - 73.4 °F 100% 29.97 in 2.5 mi Calm Calm - N/A   Light Drizzle
9:55 AM 73.4 °F - 73.4 °F 100% 29.98 in 4.0 mi Calm Calm - N/A   Clear
10:15 AM 73.4 °F - 73.4 °F 100% 29.98 in 7.0 mi Calm Calm - N/A   Mostly Cloudy
10:35 AM 75.2 °F - 75.2 °F 100% 29.98 in 5.0 mi Calm Calm - N/A   Overcast
10:55 AM 75.2 °F - 73.4 °F 94% 29.99 in 10.0 mi Calm Calm - N/A   Overcast
11:15 AM 75.2 °F - 73.4 °F 94% 29.99 in 7.0 mi Calm Calm - N/A   Overcast
11:37 AM 75.2 °F - 73.4 °F 94% 29.99 in 7.0 mi WSW 4.6 mph - N/A   Overcast
11:55 AM 75.2 °F - 73.4 °F 94% 29.98 in 7.0 mi WSW 4.6 mph - N/A   Overcast
12:15 PM 75.2 °F - 73.4 °F 94% 29.98 in 7.0 mi West 5.8 mph - N/A   Overcast
12:35 PM 75.2 °F - 73.4 °F 94% 29.98 in 7.0 mi West 6.9 mph - N/A   Overcast
12:55 PM 75.2 °F - 73.4 °F 94% 29.99 in 7.0 mi WSW 3.5 mph - N/A   Overcast
1:15 PM 75.2 °F - 73.4 °F 94% 29.98 in 7.0 mi WNW 5.8 mph - N/A   Overcast
1:35 PM 77.0 °F - 73.4 °F 89% 29.98 in 7.0 mi WNW 6.9 mph - N/A   Overcast
1:57 PM 77.0 °F - 73.4 °F 89% 29.97 in 5.0 mi WNW 5.8 mph - N/A   Overcast
2:15 PM 77.0 °F - 73.4 °F 89% 29.96 in 5.0 mi NW 6.9 mph - N/A   Overcast
2:37 PM 78.8 °F - 75.2 °F 89% 29.97 in 4.0 mi West 4.6 mph - N/A   Overcast
2:55 PM 78.8 °F - 75.2 °F 89% 29.97 in 4.0 mi Calm Calm - N/A   Overcast
3:17 PM 80.6 °F 86.2 °F 75.2 °F 84% 29.95 in 5.0 mi NNW 4.6 mph - N/A   Haze
3:35 PM 80.6 °F 86.2 °F 75.2 °F 84% 29.95 in 7.0 mi WNW 5.8 mph - N/A   Scattered Clouds
3:57 PM 80.6 °F 86.2 °F 75.2 °F 84% 29.94 in 7.0 mi NW 3.5 mph - N/A   Scattered Clouds
4:15 PM 82.4 °F 89.5 °F 75.2 °F 79% 29.93 in 7.0 mi NNW 4.6 mph - N/A   Scattered Clouds
4:36 PM 82.4 °F 89.5 °F 75.2 °F 79% 29.93 in 7.0 mi NW 5.8 mph - N/A   Scattered Clouds
4:55 PM 82.4 °F 89.5 °F 75.2 °F 79% 29.94 in 7.0 mi NNW 6.9 mph - N/A   Mostly Cloudy
5:35 PM 80.6 °F 85.4 °F 73.4 °F 79% 29.95 in 10.0 mi North 8.1 mph - 0.01 in   Scattered Clouds
6:15 PM 78.8 °F - 73.4 °F 83% 29.96 in 10.0 mi NNW 8.1 mph - N/A   Scattered Clouds
6:35 PM 78.8 °F - 73.4 °F 83% 29.96 in 10.0 mi NNW 8.1 mph - N/A   Mostly Cloudy
6:55 PM 78.8 °F - 73.4 °F 83% 29.96 in 7.0 mi NNW 3.5 mph - N/A   Scattered Clouds
7:15 PM 77.0 °F - 73.4 °F 89% 29.97 in 7.0 mi NW 4.6 mph - N/A   Clear
7:35 PM 75.2 °F - 73.4 °F 94% 29.96 in 5.0 mi Calm Calm - N/A   Clear
7:56 PM 73.4 °F - 73.4 °F 100% 29.96 in 5.0 mi NNW 4.6 mph - N/A   Clear
8:15 PM 73.4 °F - 71.6 °F 94% 29.96 in 5.0 mi North 3.5 mph - N/A   Clear
8:35 PM 73.4 °F - 71.6 °F 94% 29.96 in 5.0 mi Calm Calm - N/A   Scattered Clouds
8:55 PM 73.4 °F - 71.6 °F 94% 29.96 in 4.0 mi Calm Calm - N/A   Clear
9:15 PM 71.6 °F - 71.6 °F 100% 29.96 in 3.0 mi Calm Calm - N/A   Clear
9:37 PM 71.6 °F - 71.6 °F 100% 29.97 in 3.0 mi Calm Calm - N/A   Clear
9:55 PM 71.6 °F - 69.8 °F 94% 29.97 in 2.5 mi Calm Calm - N/A   Clear
10:15 PM 71.6 °F - 69.8 °F 94% 29.98 in 2.5 mi Calm Calm - N/A   Scattered Clouds
11:15 PM 71.6 °F - 71.6 °F 100% 29.97 in 2.5 mi Calm Calm - N/A   Overcast
11:55 PM 73.4 °F - 71.6 °F 94% 29.97 in 2.5 mi Calm Calm - N/A   Overcast